Starlink 5280

operational
NORAD ID: 54166 Int'l Des: 2022-141 Owner: SPXS Country: US Constellation: starlink
LEOCIRCULAR

关于 Starlink 5280

正在加载描述...

实时位置

正在加载3D地球...

即将过境

高度历史

Altitude vs Time

uPlot chart will show altitude changes over time

两行轨道根数

1 54166U 22141K 25303.77882203 .00001725 00000-0 12646-3 0 9999
2 54166 53.2173 227.4444 0001397 92.4022 267.7130 15.08839946166249
Epoch: Oct 30, 2025 • Age: 14 hours

当前状态

高度 555.4 km
速度 7.58 km/s
星下点 -43.85°S, 8.28°E
发射日期 Oct 28, 2022
运行时间 3 years
类型 internet

技术详情

分类 Payload
质量 305.00 kg
干质量 290.00 kg
总质量 305.00 kg
长度 0.20 m
直径 2.80 m
跨度 9.00 m
形状 Box + pan
制造商 SPXS
平台类型 Starlink
阶段状态 In Orbit
所有者/国家 SPXS/US

大型星座

Loading constellations...